User: anonymous   Login
Location: Griffin Ranch
(33.6186°N, 110.6622°W)
Time: 23:08:02
(UTC-07:00)
Language:

Cosmos 1812 - Orbit

View from above orbital plane
View from above orbital plane
View from above satellite
View from above satellite

Ground track
Ground track

The orbit data is extracted from the following two-line orbital elements,

1 17295U 87003A   15210.31999750  .00001928  00000-0  10932-3 0  9992
2 17295 082.5151 101.8484 0003910 020.7153 339.4235 15.12420184554758
Epoch (UTC): 29 July 2015 07:40:47
Eccentricity: 0.0003910
inclination: 82.5151°
perigee height: 526 km
apogee height: 531 km
right ascension of ascending node: 101.8484°
argument of perigee: 20.7153°
revolutions per day: 15.12420184
mean anomaly at epoch: 339.4235°
orbit number at epoch: 55475

The dashed part of the orbit path shows where the satellite is in the earth's shadow,  

DLR